ROMMA est une association bénévole à but non lucratif. Votre soutien est indispensable : ADHERER à ROMMA ou FAIRE un DON

Crest - (26, Drôme)

Vallée de la Drôme (315 m)   Longitude: 5°2' E   Latitude: 44°44' N Station partenaire n°62
 

Détail journalier du     <<     >>

Température Precipitation Humidité Pression Vent Dir Rafale Dir. rafale Ensol.
Heure (°C) (mm) (%) (hPa) (km/h) (km/h) (min)
01:00 20.507510105SSO18NE0
02:00 19.408110105SE21SSO0
03:00 19.407910108SSO23SSO0
04:00 17.508510112ESE16NE0
05:00 16.708810111ENE5NE0
06:00 16.209010111NNO3NNO0
07:00 16.0091101103NNO0
08:00 16.3092101205NNO0
09:00 19.108410121ESE5ESE25
10:00 22.507010124ESE15ENE60
11:00 24.306310117S18SSE59
12:00 25.105910128SSO23NNO60
13:00 26.2052101211SSO26SSO60
14:00 28.1043101113NE31NNE60
15:00 29.5038101110NE26NE60
16:00 30.0037101012NE26NNO60
17:00 31.302710108NE21NE60
18:00 31.102610106NE18NE60
19:00 30.802810096NE16NE60
20:00 28.204010095SSO15NE22
21:00 26.204510104SSO8SSO0
22:00 24.804910103SE10SSO0
23:00 24.405010113S18SE0
minuit 21.706110112SE8SE0

Graphique du 08-08-2019

 

Serveur OMMA